Location: Sebastopol
(38.4021°N, 122.8239°W)
Time: 14:56:00
(UTC+00:00)

Cosmos 1400 Rocket - Pass Details

Date: 29 October 2020
Orbit: 521 x 568 km, 81.2° (Epoch: 30 November)

Event Time Altitude Azimuth Distance (km) Brightness Sun altitude
Rises 12:44:31 0° 356° (N) 2,689 6.3 -22.2°
Reaches altitude 10° 12:46:44 10° 1° (N) 1,787 5.4 -21.8°
Maximum altitude 12:50:35 54° 79° (E) 647 3.4 -21.0°
Drops below altitude 10° 12:54:21 10° 157° (SSE) 1,755 5.7 -20.3°
Sets 12:56:31 0° 162° (SSE) 2,635 6.6 -19.8°
